Time,TemperatureF,DewpointF,PressureIn,WindDirection,WindDirectionDegrees,WindSpeedMPH,WindSpeedGustMPH,Humidity,HourlyPrecipIn,Conditions,Clouds,dailyrainin,SoftwareType,DateUTC
2013-04-05 00:36:00,31.7,27.0,30.07,NNW,332,3.0,-999.0,82,-99.99,,,0.09,weatherlink.com 1.10,2013-04-05 04:36:00,
2013-04-05 01:06:00,30.6,26.0,30.07,WNW,298,5.0,-999.0,82,-99.99,,,0.09,weatherlink.com 1.10,2013-04-05 05:06:00,
2013-04-05 01:21:00,30.4,26.0,30.07,NNW,329,1.0,-999.0,82,-99.99,,,0.09,weatherlink.com 1.10,2013-04-05 05:21:00,
2013-04-05 01:36:00,30.2,25.0,30.07,NNW,333,3.0,-999.0,81,-99.99,,,0.09,weatherlink.com 1.10,2013-04-05 05:36:00,
2013-04-05 01:51:00,29.2,24.0,30.08,NNW,333,0.0,-999.0,81,-99.99,,,0.09,weatherlink.com 1.10,2013-04-05 05:51:00,
2013-04-05 02:06:00,29.5,25.0,30.08,NNW,331,2.0,-999.0,82,-99.99,,,0.09,weatherlink.com 1.10,2013-04-05 06:06:00,
2013-04-05 02:21:00,28.7,24.0,30.09,NNW,327,0.0,-999.0,82,-99.99,,,0.09,weatherlink.com 1.10,2013-04-05 06:21:00,
2013-04-05 02:36:00,27.9,24.0,30.09,NNW,327,2.0,-999.0,84,-99.99,,,0.09,weatherlink.com 1.10,2013-04-05 06:36:00,
2013-04-05 02:51:00,27.6,23.0,30.10,NNW,327,0.0,-999.0,83,-99.99,,,0.09,weatherlink.com 1.10,2013-04-05 06:51:00,
2013-04-05 03:06:00,27.3,23.0,30.10,NNW,329,1.0,-999.0,85,-99.99,,,0.09,weatherlink.com 1.10,2013-04-05 07:06:00,
2013-04-05 03:21:00,28.2,24.0,30.11,NNW,342,3.0,-999.0,85,-99.99,,,0.09,weatherlink.com 1.10,2013-04-05 07:21:00,
2013-04-05 03:36:00,28.3,24.0,30.11,NNW,340,6.0,-999.0,84,-99.99,,,0.09,weatherlink.com 1.10,2013-04-05 07:36:00,
2013-04-05 03:51:00,28.3,24.0,30.12,North,349,1.0,-999.0,83,-99.99,,,0.09,weatherlink.com 1.10,2013-04-05 07:51:00,
2013-04-05 04:21:00,28.8,23.0,30.14,NE,37,5.0,-999.0,80,-99.99,,,0.09,weatherlink.com 1.10,2013-04-05 08:21:00,
2013-04-05 04:36:00,28.4,22.0,30.15,NNE,18,5.0,-999.0,77,-99.99,,,0.09,weatherlink.com 1.10,2013-04-05 08:36:00,
2013-04-05 04:52:00,27.8,20.0,30.16,NNE,31,6.0,-999.0,73,-99.99,,,0.09,weatherlink.com 1.10,2013-04-05 08:52:00,
2013-04-05 05:07:00,27.4,19.0,30.17,NNE,29,12.0,-999.0,70,-99.99,,,0.09,weatherlink.com 1.10,2013-04-05 09:07:00,
2013-04-05 05:22:00,27.2,18.0,30.18,NNE,28,5.0,-999.0,67,-99.99,,,0.09,weatherlink.com 1.10,2013-04-05 09:22:00,
2013-04-05 05:37:00,26.7,16.0,30.19,NNE,22,7.0,-999.0,65,-99.99,,,0.09,weatherlink.com 1.10,2013-04-05 09:37:00,
2013-04-05 05:52:00,26.2,16.0,30.19,NNE,29,3.0,-999.0,65,-99.99,,,0.09,weatherlink.com 1.10,2013-04-05 09:52:00,
2013-04-05 06:07:00,25.8,15.0,30.20,NNE,26,4.0,-999.0,65,-99.99,,,0.09,weatherlink.com 1.10,2013-04-05 10:07:00,
2013-04-05 06:22:00,25.4,15.0,30.21,North,11,4.0,-999.0,65,-99.99,,,0.09,weatherlink.com 1.10,2013-04-05 10:22:00,
2013-04-05 06:37:00,25.4,15.0,30.22,NNE,14,7.0,-999.0,65,-99.99,,,0.09,weatherlink.com 1.10,2013-04-05 10:37:00,
2013-04-05 06:52:00,25.0,15.0,30.23,NNE,13,12.0,-999.0,65,-99.99,,,0.09,weatherlink.com 1.10,2013-04-05 10:52:00,
2013-04-05 07:07:00,24.6,15.0,30.24,NNE,24,2.0,-999.0,66,-99.99,,,0.09,weatherlink.com 1.10,2013-04-05 11:07:00,
2013-04-05 07:22:00,24.3,14.0,30.25,North,11,3.0,-999.0,66,-99.99,,,0.09,weatherlink.com 1.10,2013-04-05 11:22:00,
2013-04-05 07:37:00,23.8,14.0,30.26,NE,39,3.0,-999.0,66,-99.99,,,0.09,weatherlink.com 1.10,2013-04-05 11:37:00,
2013-04-05 07:52:00,24.1,14.0,30.27,NE,39,1.0,-999.0,66,-99.99,,,0.09,weatherlink.com 1.10,2013-04-05 11:52:00,
2013-04-05 08:07:00,24.8,14.0,30.28,NE,39,4.0,-999.0,64,-99.99,,,0.09,weatherlink.com 1.10,2013-04-05 12:07:00,
2013-04-05 08:22:00,24.8,14.0,30.29,NE,39,2.0,-999.0,64,-99.99,,,0.09,weatherlink.com 1.10,2013-04-05 12:22:00,
2013-04-05 08:37:00,25.2,14.0,30.29,NNE,14,5.0,-999.0,63,-99.99,,,0.09,weatherlink.com 1.10,2013-04-05 12:37:00,
2013-04-05 08:52:00,25.4,14.0,30.30,North,349,3.0,-999.0,63,-99.99,,,0.09,weatherlink.com 1.10,2013-04-05 12:52:00,
2013-04-05 09:07:00,25.9,14.0,30.30,NE,37,6.0,-999.0,62,-99.99,,,0.09,weatherlink.com 1.10,2013-04-05 13:07:00,
2013-04-05 09:22:00,26.5,15.0,30.30,NNW,341,2.0,-999.0,61,-99.99,,,0.09,weatherlink.com 1.10,2013-04-05 13:22:00,
2013-04-05 09:37:00,27.3,14.0,30.30,North,360,6.0,-999.0,58,-99.99,,,0.09,weatherlink.com 1.10,2013-04-05 13:37:00,
2013-04-05 09:52:00,28.0,16.0,30.29,NNW,329,7.0,-999.0,61,-99.99,,,0.09,weatherlink.com 1.10,2013-04-05 13:52:00,
2013-04-05 10:07:00,28.4,16.0,30.30,NNW,338,4.0,-999.0,59,-99.99,,,0.00,weatherlink.com 1.10,2013-04-05 14:07:00,
2013-04-05 10:22:00,28.4,15.0,30.30,NNW,346,6.0,-999.0,58,-99.99,,,0.00,weatherlink.com 1.10,2013-04-05 14:22:00,
2013-04-05 10:37:00,29.0,17.0,30.30,WNW,302,4.0,-999.0,60,-99.99,,,0.00,weatherlink.com 1.10,2013-04-05 14:37:00,
2013-04-05 10:53:00,28.9,16.0,30.30,NNW,341,1.0,-999.0,59,-99.99,,,0.00,weatherlink.com 1.10,2013-04-05 14:53:00,
2013-04-05 11:07:00,29.6,17.0,30.31,West,267,6.0,-999.0,59,-99.99,,,0.00,weatherlink.com 1.10,2013-04-05 15:07:00,
2013-04-05 11:23:00,30.1,16.0,30.31,WNW,296,7.0,-999.0,56,-99.99,,,0.00,weatherlink.com 1.10,2013-04-05 15:23:00,
2013-04-05 11:38:00,30.6,18.0,30.31,NW,310,4.0,-999.0,59,-99.99,,,0.00,weatherlink.com 1.10,2013-04-05 15:38:00,
2013-04-05 11:53:00,30.8,17.0,30.31,NW,309,7.0,-999.0,58,-99.99,,,0.00,weatherlink.com 1.10,2013-04-05 15:53:00,
2013-04-05 12:08:00,30.4,17.0,30.32,WNW,290,6.0,-999.0,59,-99.99,,,0.00,weatherlink.com 1.10,2013-04-05 16:08:00,
2013-04-05 12:23:00,31.2,18.0,30.31,NNW,341,9.0,-999.0,58,-99.99,,,0.00,weatherlink.com 1.10,2013-04-05 16:23:00,
2013-04-05 12:38:00,30.9,20.0,30.30,WNW,302,6.0,-999.0,63,-99.99,,,0.00,weatherlink.com 1.10,2013-04-05 16:38:00,
2013-04-05 12:53:00,30.9,20.0,30.30,WNW,290,13.0,-999.0,63,-99.99,,,0.00,weatherlink.com 1.10,2013-04-05 16:53:00,
2013-04-05 13:08:00,31.1,18.0,30.30,WNW,300,4.0,-999.0,59,-99.99,,,0.00,weatherlink.com 1.10,2013-04-05 17:08:00,
2013-04-05 13:23:00,31.0,19.0,30.29,NW,309,5.0,-999.0,61,-99.99,,,0.00,weatherlink.com 1.10,2013-04-05 17:23:00,
2013-04-05 13:38:00,31.1,19.0,30.29,West,279,12.0,-999.0,61,-99.99,,,0.00,weatherlink.com 1.10,2013-04-05 17:38:00,
2013-04-05 13:53:00,31.0,18.0,30.29,WNW,292,9.0,-999.0,58,-99.99,,,0.00,weatherlink.com 1.10,2013-04-05 17:53:00,
2013-04-05 14:08:00,30.9,18.0,30.29,NW,323,10.0,-999.0,58,-99.99,,,0.00,weatherlink.com 1.10,2013-04-05 18:08:00,
2013-04-05 14:23:00,31.3,17.0,30.29,NW,321,11.0,-999.0,56,-99.99,,,0.00,weatherlink.com 1.10,2013-04-05 18:23:00,
2013-04-05 14:38:00,30.9,17.0,30.29,West,276,9.0,-999.0,56,-99.99,,,0.00,weatherlink.com 1.10,2013-04-05 18:38:00,
2013-04-05 14:53:00,30.7,17.0,30.29,WNW,302,6.0,-999.0,58,-99.99,,,0.00,weatherlink.com 1.10,2013-04-05 18:53:00,
2013-04-05 15:08:00,30.6,18.0,30.29,NW,314,18.0,-999.0,60,-99.99,,,0.00,weatherlink.com 1.10,2013-04-05 19:08:00,
2013-04-05 15:23:00,30.5,18.0,30.29,WNW,296,15.0,-999.0,59,-99.99,,,0.00,weatherlink.com 1.10,2013-04-05 19:23:00,
2013-04-05 15:38:00,30.3,18.0,30.29,West,279,8.0,-999.0,61,-99.99,,,0.00,weatherlink.com 1.10,2013-04-05 19:38:00,
2013-04-05 15:53:00,30.3,17.0,30.29,NW,315,6.0,-999.0,59,-99.99,,,0.00,weatherlink.com 1.10,2013-04-05 19:53:00,
2013-04-05 16:08:00,30.5,18.0,30.29,NW,305,6.0,-999.0,60,-99.99,,,0.00,weatherlink.com 1.10,2013-04-05 20:08:00,
2013-04-05 16:23:00,30.2,18.0,30.29,WNW,300,12.0,-999.0,61,-99.99,,,0.00,weatherlink.com 1.10,2013-04-05 20:23:00,
2013-04-05 16:38:00,30.5,20.0,30.29,WNW,293,11.0,-999.0,64,-99.99,,,0.00,weatherlink.com 1.10,2013-04-05 20:38:00,
2013-04-05 16:53:00,30.3,18.0,30.29,NW,316,8.0,-999.0,61,-99.99,,,0.00,weatherlink.com 1.10,2013-04-05 20:53:00,
2013-04-05 17:08:00,30.0,18.0,30.29,NNW,346,7.0,-999.0,60,-99.99,,,0.00,weatherlink.com 1.10,2013-04-05 21:08:00,
2013-04-05 17:23:00,30.2,18.0,30.30,NW,318,12.0,-999.0,61,-99.99,,,0.00,weatherlink.com 1.10,2013-04-05 21:23:00,
2013-04-05 17:38:00,30.2,19.0,30.30,NW,313,14.0,-999.0,63,-99.99,,,0.00,weatherlink.com 1.10,2013-04-05 21:38:00,
2013-04-05 17:53:00,30.2,19.0,30.30,WNW,288,11.0,-999.0,63,-99.99,,,0.00,weatherlink.com 1.10,2013-04-05 21:53:00,
2013-04-05 18:08:00,30.1,18.0,30.30,NW,306,11.0,-999.0,62,-99.99,,,0.00,weatherlink.com 1.10,2013-04-05 22:08:00,
2013-04-05 18:23:00,29.9,18.0,30.30,NW,309,14.0,-999.0,62,-99.99,,,0.00,weatherlink.com 1.10,2013-04-05 22:23:00,
2013-04-05 19:23:00,29.1,19.0,30.31,NW,310,4.0,-999.0,65,-99.99,,,0.00,weatherlink.com 1.10,2013-04-05 23:23:00,
2013-04-05 19:38:00,28.5,18.0,30.31,WNW,300,8.0,-999.0,66,-99.99,,,0.00,weatherlink.com 1.10,2013-04-05 23:38:00,
2013-04-05 19:53:00,28.0,20.0,30.31,WNW,296,3.0,-999.0,72,-99.99,,,0.00,weatherlink.com 1.10,2013-04-05 23:53:00,
2013-04-05 20:09:00,27.6,18.0,30.31,NW,315,4.0,-999.0,68,-99.99,,,0.00,weatherlink.com 1.10,2013-04-06 00:09:00,
2013-04-05 20:39:00,27.3,18.0,30.32,WNW,298,5.0,-999.0,69,-99.99,,,0.00,weatherlink.com 1.10,2013-04-06 00:39:00,
2013-04-05 20:54:00,27.0,18.0,30.32,WNW,302,3.0,-999.0,70,-99.99,,,0.00,weatherlink.com 1.10,2013-04-06 00:54:00,
2013-04-05 21:09:00,26.6,18.0,30.32,NW,319,3.0,-999.0,71,-99.99,,,0.00,weatherlink.com 1.10,2013-04-06 01:09:00,
2013-04-05 21:24:00,26.2,18.0,30.33,NW,308,2.0,-999.0,72,-99.99,,,0.00,weatherlink.com 1.10,2013-04-06 01:24:00,
2013-04-05 21:39:00,25.9,18.0,30.34,NW,308,2.0,-999.0,73,-99.99,,,0.00,weatherlink.com 1.10,2013-04-06 01:39:00,
2013-04-05 21:54:00,25.5,19.0,30.34,NW,308,0.0,-999.0,75,-99.99,,,0.00,weatherlink.com 1.10,2013-04-06 01:54:00,
2013-04-05 22:09:00,23.9,17.0,30.35,NW,307,0.0,-999.0,75,-99.99,,,0.00,weatherlink.com 1.10,2013-04-06 02:09:00,
2013-04-05 22:24:00,22.9,17.0,30.35,NW,308,0.0,-999.0,79,-99.99,,,0.00,weatherlink.com 1.10,2013-04-06 02:24:00,
2013-04-05 22:54:00,21.8,17.0,30.35,NW,308,0.0,-999.0,80,-99.99,,,0.00,weatherlink.com 1.10,2013-04-06 02:54:00,
2013-04-05 23:24:00,21.2,17.0,30.34,NW,307,0.0,-999.0,82,-99.99,,,0.00,weatherlink.com 1.10,2013-04-06 03:24:00,
2013-04-05 23:39:00,21.1,16.0,30.34,NW,313,2.0,-999.0,82,-99.99,,,0.00,weatherlink.com 1.10,2013-04-06 03:39:00,
2013-04-05 23:54:00,20.3,16.0,30.34,NNW,338,1.0,-999.0,84,-99.99,,,0.00,weatherlink.com 1.10,2013-04-06 03:54:00,